STARLINK-2131, 47728

Orbit data source: Space-Track

STARLINK-2131, 47728 is a payload satellite owned by SpaceX/Seattle (US) in LEO that was launched on Thu, 04 Mar 2021 UTC via an FALCON 9 launch vehicle from the Air Force Eastern Test Range (AFETR). Payload-class satellites include a variety of spacecraft equipped with specific instruments for various scientific and technological missions. These include communications satellites like Starlink; space stations such as the ISS; scientific satellites like the Hubble; Earth observation satellites from companies like Planet Labs, Umbra, and HawkEye 360; GPS; miniature CubeSats for education and research; and military/defense satellites.

Loading next visibility...
Identifier
47728, 2021-017G
Orbit
LEO
Country
Flag of USUS
Related business
Manufacturer
SpaceX/Seattle
Mission
Operational Commercial Communications
Bus & Motor
STARLINK, Unknown motor
Mass
260 kg wet, ~248 kg dry
Launch date (UTC)
2021-03-04 (5 years ago)
Launch vehicle
FALCON 9
Launch site
Air Force Eastern Test Range (AFETR)
Object type
Payload
Rocket body
Debris
Shape & HBR
Box + 1 Pan, 10.1 m
Radar Cross Section
13.562 m², Large (>1 m²)

Expand to show TLE details & history
Last TLE update: 9 hours ago

TLE from 9 hours ago
0 STARLINK-2131
1 47728U 21017G   25346.99000804  .00000181  00000-0  31044-4 0  9995
2 47728  53.0533 230.8251 0001568  87.7076 272.4092 15.06394508264857
Epoch: 2025-12-12T23:45Z
TLE epoch observation values (Epoch: 2025-12-12T23:45:36.694Z)
Latitude
-0.00007°
Longitude
152.49845°
Altitude
548.062 km
Speed
7.589 km/s
True Right ascension
15h 23m 18s
True Declination
0° 00' 00"
Sunlit
Object was in daylight at epoch
Visualization orbit readout
Latitude
Unknown
Longitude
Unknown
Altitude
Unknown
Speed
Unknown
Apparent Right ascension
Unknown
Apparent Declination
Unknown
Sunlit
N/A
Visualization observer readout
Local Sidereal Time
07:26:30
Azimuth
Unknown
Elevation
Unknown
Doppler factor
Unknown
Orbital elements
Apogee altitude
548.585 km
Perigee altitude
546.413 km
Semi-major axis
6,925.636 km
Eccentricity
0.00016
Inclination
53.0533°
RAAN
230.8251°
Arg. of periapsis
87.7076°
True anomaly
272.39125°
Mean anomaly
272.4092°
Eccentric anomaly
272.40022°
Mean motion
3.76577 °/min
Orbital period
95.6 mins
BSTAR
0.000031044
Loading maneuver chart data...
Computing Atmospheric mass density...

Documentation

Showing up to 5 results
|